Hourly Weather Bolshie Ozerki

Today, 19 June, Saturday

Time Temperature Precipitation Wind Pressure Humidity
00:00 +18°C° 0 mm 3 mps 754 mmHg 83%
01:00 +17°C° 0 mm 3 mps 754 mmHg 85%
02:00 +17°C° 0 mm 3 mps 754 mmHg 86%
03:00 +17°C° 0 mm 3 mps 754 mmHg 87%
04:00 +17°C° 0 mm 3 mps 754 mmHg 87%
05:00 +16°C° 0 mm 2 mps 754 mmHg 88%
06:00 +18°C° 0 mm 3 mps 754 mmHg 83%
07:00 +20°C° 0 mm 3 mps 754 mmHg 79%
08:00 +24°C° 0 mm 3 mps 754 mmHg 76%
09:00 +25°C° 0 mm 3 mps 754 mmHg 72%
10:00 +26°C° 0 mm 3 mps 754 mmHg 68%
11:00 +27°C° 0 mm 4 mps 754 mmHg 64%
12:00 +28°C° 0 mm 4 mps 754 mmHg 61%
13:00 +28°C° 0 mm 4 mps 753 mmHg 57%
14:00 +29°C° 0 mm 3 mps 753 mmHg 53%
15:00 +29°C° 0 mm 3 mps 753 mmHg 55%
16:00 +29°C° 0 mm 3 mps 753 mmHg 58%
17:00 +29°C° 0 mm 3 mps 753 mmHg 61%
18:00 +27°C° 0 mm 3 mps 752 mmHg 67%
19:00 +25°C° 0 mm 3 mps 752 mmHg 73%
20:00 +24°C° 0 mm 2 mps 752 mmHg 80%
21:00 +23°C° 0 mm 2 mps 752 mmHg 82%
22:00 +21°C° 0 mm 2 mps 752 mmHg 84%
23:00 +20°C° 0 mm 3 mps 752 mmHg 86%

Tomorrow, 20 June, Sunday

Time Temperature Precipitation Wind Pressure Humidity
00:00 +19°C° 0 mm 2 mps 752 mmHg 87%
01:00 +19°C° 0 mm 2 mps 752 mmHg 89%
02:00 +18°C° 0 mm 2 mps 753 mmHg 90%
03:00 +18°C° 0 mm 2 mps 752 mmHg 90%
04:00 +18°C° 0 mm 2 mps 752 mmHg 91%
05:00 +18°C° 0 mm 2 mps 752 mmHg 91%
06:00 +20°C° 0 mm 3 mps 752 mmHg 86%
07:00 +22°C° 0 mm 3 mps 752 mmHg 82%
08:00 +25°C° 0 mm 4 mps 752 mmHg 77%
09:00 +26°C° 0 mm 4 mps 752 mmHg 73%
10:00 +27°C° 0 mm 5 mps 752 mmHg 68%
11:00 +28°C° 0 mm 5 mps 752 mmHg 63%
12:00 +29°C° 0 mm 5 mps 751 mmHg 60%
13:00 +30°C° 0 mm 4 mps 751 mmHg 57%
14:00 +30°C° 0 mm 4 mps 751 mmHg 54%
15:00 +30°C° 0.4 mm 4 mps 751 mmHg 59%
16:00 +29°C° 0.4 mm 4 mps 750 mmHg 65%
17:00 +28°C° 0.4 mm 4 mps 750 mmHg 70%
18:00 +27°C° 0.4 mm 4 mps 750 mmHg 75%
19:00 +26°C° 0.4 mm 3 mps 750 mmHg 80%
20:00 +25°C° 0.4 mm 3 mps 750 mmHg 85%
21:00 +24°C° 0 mm 3 mps 750 mmHg 87%
22:00 +22°C° 0 mm 4 mps 750 mmHg 88%
23:00 +21°C° 0 mm 4 mps 750 mmHg 89%

Day after tomorrow, 21 June, Monday

Time Temperature Precipitation Wind Pressure Humidity
00:00 +20°C° 0 mm 3 mps 750 mmHg 90%
01:00 +20°C° 0 mm 3 mps 750 mmHg 92%
02:00 +19°C° 0 mm 3 mps 750 mmHg 93%
03:00 +19°C° 0 mm 3 mps 750 mmHg 93%
04:00 +18°C° 0 mm 2 mps 749 mmHg 94%
05:00 +18°C° 0 mm 2 mps 749 mmHg 94%
06:00 +20°C° 0 mm 3 mps 749 mmHg 89%
07:00 +21°C° 0 mm 4 mps 749 mmHg 83%
08:00 +23°C° 0 mm 4 mps 749 mmHg 78%
09:00 +25°C° 0 mm 4 mps 749 mmHg 72%
10:00 +26°C° 0 mm 5 mps 749 mmHg 67%
11:00 +27°C° 0 mm 5 mps 749 mmHg 61%
12:00 +28°C° 0 mm 5 mps 749 mmHg 59%
13:00 +28°C° 0 mm 5 mps 748 mmHg 58%
14:00 +29°C° 0 mm 5 mps 748 mmHg 56%
15:00 +28°C° 0.3 mm 5 mps 748 mmHg 61%
16:00 +28°C° 0.3 mm 4 mps 748 mmHg 66%
17:00 +27°C° 0.3 mm 4 mps 748 mmHg 72%
18:00 +26°C° 0.4 mm 3 mps 748 mmHg 76%
19:00 +25°C° 0.4 mm 3 mps 747 mmHg 80%
20:00 +24°C° 0.4 mm 2 mps 747 mmHg 84%
21:00 +22°C° 0 mm 3 mps 747 mmHg 86%
22:00 +21°C° 0 mm 3 mps 747 mmHg 88%
23:00 +20°C° 0 mm 3 mps 747 mmHg 91%

22 June, Tuesday

Time Temperature Precipitation Wind Pressure Humidity
00:00 +20°C° 0.1 mm 3 mps 747 mmHg 91%
01:00 +20°C° 0.1 mm 3 mps 747 mmHg 92%
02:00 +19°C° 0.1 mm 3 mps 747 mmHg 93%
03:00 +19°C° 0 mm 3 mps 747 mmHg 94%
04:00 +19°C° 0 mm 3 mps 747 mmHg 94%
05:00 +19°C° 0 mm 3 mps 747 mmHg 94%
06:00 +21°C° 0 mm 3 mps 747 mmHg 90%
07:00 +22°C° 0 mm 4 mps 748 mmHg 85%
08:00 +25°C° 0 mm 4 mps 748 mmHg 80%
09:00 +26°C° 0 mm 4 mps 748 mmHg 74%
10:00 +27°C° 0 mm 5 mps 748 mmHg 68%
11:00 +29°C° 0 mm 5 mps 748 mmHg 62%
12:00 +29°C° 0 mm 5 mps 748 mmHg 60%
13:00 +30°C° 0 mm 5 mps 748 mmHg 57%
14:00 +30°C° 0 mm 5 mps 748 mmHg 55%
15:00 +30°C° 0 mm 4 mps 748 mmHg 57%
16:00 +30°C° 0 mm 4 mps 748 mmHg 59%
17:00 +30°C° 0 mm 3 mps 748 mmHg 61%
18:00 +29°C° 0 mm 3 mps 748 mmHg 66%
19:00 +28°C° 0 mm 2 mps 748 mmHg 71%
20:00 +26°C° 0 mm 2 mps 748 mmHg 75%
21:00 +25°C° 0 mm 2 mps 748 mmHg 77%
22:00 +24°C° 0 mm 2 mps 748 mmHg 79%
23:00 +23°C° 0 mm 1 mps 748 mmHg 81%

23 June, Wednesday

Time Temperature Precipitation Wind Pressure Humidity
00:00 +23°C° 0 mm 1 mps 748 mmHg 82%
01:00 +21°C° 0 mm 2 mps 748 mmHg 83%
02:00 +21°C° 0 mm 2 mps 748 mmHg 84%
03:00 +21°C° 0 mm 2 mps 749 mmHg 85%
04:00 +21°C° 0 mm 2 mps 749 mmHg 86%
05:00 +21°C° 0 mm 2 mps 749 mmHg 88%
06:00 +24°C° 0 mm 2 mps 749 mmHg 83%
07:00 +25°C° 0 mm 2 mps 750 mmHg 79%
08:00 +27°C° 0 mm 2 mps 750 mmHg 75%
09:00 +28°C° 0 mm 2 mps 750 mmHg 71%
10:00 +29°C° 0 mm 3 mps 750 mmHg 67%
11:00 +30°C° 0 mm 3 mps 750 mmHg 63%
12:00 +31°C° 0.4 mm 3 mps 750 mmHg 62%
13:00 +31°C° 0.4 mm 3 mps 750 mmHg 61%
14:00 +31°C° 0.4 mm 3 mps 750 mmHg 60%
15:00 +31°C° 0.9 mm 2 mps 750 mmHg 63%
16:00 +31°C° 0.9 mm 2 mps 750 mmHg 66%
17:00 +30°C° 0.9 mm 2 mps 750 mmHg 69%
18:00 +29°C° 0.3 mm 2 mps 750 mmHg 72%
19:00 +28°C° 0.3 mm 2 mps 750 mmHg 76%
20:00 +27°C° 0.3 mm 2 mps 750 mmHg 80%
21:00 +26°C° 0.2 mm 1 mps 750 mmHg 81%
22:00 +25°C° 0.2 mm 1 mps 750 mmHg 83%
23:00 +24°C° 0.2 mm 1 mps 750 mmHg 84%

24 June, Thursday

Time Temperature Precipitation Wind Pressure Humidity
00:00 +24°C° 0.2 mm 1 mps 750 mmHg 85%
01:00 +23°C° 0.2 mm 1 mps 750 mmHg 86%
02:00 +23°C° 0.2 mm 1 mps 750 mmHg 88%
03:00 +23°C° 0.1 mm 1 mps 750 mmHg 88%
04:00 +23°C° 0.1 mm 1 mps 750 mmHg 88%
05:00 +23°C° 0.1 mm 1 mps 750 mmHg 88%
06:00 +25°C° 0 mm 1 mps 750 mmHg 84%
07:00 +26°C° 0 mm 1 mps 750 mmHg 80%
08:00 +27°C° 0 mm 1 mps 750 mmHg 76%
09:00 +28°C° 0.6 mm 1 mps 750 mmHg 73%
10:00 +29°C° 0.6 mm 1 mps 750 mmHg 70%
11:00 +30°C° 0.6 mm 2 mps 750 mmHg 66%
12:00 +31°C° 0.3 mm 2 mps 750 mmHg 63%
13:00 +31°C° 0.3 mm 2 mps 750 mmHg 60%
14:00 +32°C° 0.3 mm 2 mps 750 mmHg 56%
15:00 +32°C° 0.1 mm 2 mps 750 mmHg 59%
16:00 +31°C° 0.1 mm 2 mps 750 mmHg 61%
17:00 +31°C° 0.1 mm 2 mps 750 mmHg 64%
18:00 +30°C° 0.7 mm 2 mps 749 mmHg 69%
19:00 +28°C° 0.7 mm 2 mps 749 mmHg 73%
20:00 +27°C° 0.7 mm 2 mps 749 mmHg 78%
21:00 +25°C° 0.7 mm 2 mps 749 mmHg 82%
22:00 +23°C° 0.7 mm 2 mps 749 mmHg 85%
23:00 +21°C° 0.7 mm 2 mps 749 mmHg 89%
Show more